Weather History for Poplar Bluff, MO

Change the Weather History Date:

Saturday, November 10, 2012

  Actual Average Record
Temperature  
Mean Temperature 60 °F -  
Max Temperature 73 °F 61 °F 80 °F (1935)
Min Temperature 46 °F 37 °F 19 °F (1953)
Degree Days  
Heating Degree Days 6    
Growing Degree Days 10 (Base 50)    
Moisture  
Dew Point 50 °F    
Average Humidity 67    
Maximum Humidity 86    
Minimum Humidity 49    
Precipitation  
Precipitation 0.00 in - - ()
Sea Level Pressure  
Sea Level Pressure 30.08 in    
Wind  
Wind Speed 8 mph (South)    
Max Wind Speed 23 mph    
Max Gust Speed 30 mph    
Visibility 10 miles    
Events      
Averages and records for this station are not official NWS values.
T = Trace of Precipitation, MM = Missing Value Source: NWS Daily Summary

Daily Weather History Graph

Daily Weather History Graph

Search for Another Location

Airport:

Trip Planner

Search our weather history database for the weather conditions in past years. The results will help you decide how hot, cold, wet, or windy it might be!

Date:

Astronomy

Nov. 10, 2012 Rise Set
Actual Time 6:34 AM CST 4:55 PM CST
Civil Twilight 6:07 AM CST 5:22 PM CST
Nautical Twilight 5:36 AM CST 5:53 PM CST
Astronomical Twilight 5:05 AM CST 6:24 PM CST
Moon 2:45 AM CST (11/10) 2:38 PM CST (11/10)
Length of Visible Light 11h 15m
Length of Day
10h 20m
Waning Crescent, 14% of the Moon is Illuminated
Nov 10
Waning Crescent
Nov 13
New
Nov 20
First Quarter
Nov 28
Full
Dec 6
Last Quarter

Hourly Weather History & Observations

Time (CST) Temp. Dew Point Humidity Pressure Visibility Wind Dir Wind Speed Gust Speed Precip Events Conditions
12:53 AM 52.0 °F 44.1 °F 74% 30.09 in 10.0 mi South 3.5 mph - N/A   Clear
1:53 AM 52.0 °F 43.0 °F 71% 30.08 in 10.0 mi South 4.6 mph - N/A   Clear
2:53 AM 50.0 °F 42.1 °F 74% 30.09 in 10.0 mi SSE 3.5 mph - N/A   Clear
3:53 AM 50.0 °F 43.0 °F 77% 30.09 in 10.0 mi SE 3.5 mph - N/A   Clear
4:53 AM 46.9 °F 43.0 °F 86% 30.10 in 10.0 mi Calm Calm - N/A   Clear
5:53 AM 51.1 °F 45.0 °F 80% 30.10 in 10.0 mi South 6.9 mph - N/A   Clear
6:53 AM 51.1 °F 46.0 °F 83% 30.12 in 10.0 mi South 4.6 mph - N/A   Clear
7:53 AM 55.0 °F 48.9 °F 80% 30.14 in 10.0 mi South 5.8 mph - N/A   Mostly Cloudy
8:53 AM 60.1 °F 53.1 °F 78% 30.14 in 10.0 mi SSW 11.5 mph 17.3 mph N/A   Scattered Clouds
9:49 AM 64.4 °F 55.4 °F 73% 30.13 in 10.0 mi South 11.5 mph - N/A   Mostly Cloudy
9:53 AM 66.0 °F 55.0 °F 68% 30.13 in 10.0 mi SSW 9.2 mph - N/A   Mostly Cloudy
10:13 AM 66.2 °F 55.4 °F 68% 30.13 in 10.0 mi SSW 20.7 mph 27.6 mph N/A   Scattered Clouds
10:53 AM 68.0 °F 57.0 °F 68% 30.11 in 10.0 mi SSW 23.0 mph 29.9 mph N/A   Partly Cloudy
11:53 AM 70.0 °F 55.9 °F 61% 30.09 in 10.0 mi SW 18.4 mph 27.6 mph N/A   Clear
12:53 PM 72.0 °F 55.9 °F 57% 30.07 in 10.0 mi SSW 17.3 mph 26.5 mph N/A   Clear
1:53 PM 73.0 °F 55.9 °F 55% 30.05 in 10.0 mi SSW 16.1 mph 23.0 mph N/A   Clear
2:53 PM 73.0 °F 53.1 °F 49% 30.03 in 10.0 mi South 17.3 mph 24.2 mph N/A   Clear
3:53 PM 72.0 °F 53.1 °F 51% 30.04 in 10.0 mi South 11.5 mph 21.9 mph N/A   Clear
4:53 PM 69.1 °F 52.0 °F 54% 30.04 in 10.0 mi South 10.4 mph - N/A   Clear
5:53 PM 66.9 °F 48.9 °F 52% 30.06 in 10.0 mi South 10.4 mph - N/A   Clear
6:53 PM 64.0 °F 48.9 °F 58% 30.08 in 10.0 mi SSE 8.1 mph - N/A   Clear
7:53 PM 63.0 °F 48.9 °F 60% 30.06 in 10.0 mi SSE 9.2 mph - N/A   Clear
8:53 PM 61.0 °F 48.9 °F 64% 30.06 in 10.0 mi SSE 11.5 mph - N/A   Clear
10:53 PM 60.1 °F 48.9 °F 67% 30.04 in 10.0 mi SSE 10.4 mph - N/A   Clear
11:53 PM 60.1 °F 50.0 °F 69% 30.04 in 10.0 mi South 10.4 mph - N/A   Clear